Location: Andrest
(43.3200°N, 0.0641°E)
Time: 21:39:22
(UTC+00:00)

SL-16 DEB - Visible Passes

Search period start: 24 June 2021 00:00
Search period end: 04 July 2021 00:00
Orbit: 577 x 636 km, 70.8° (Epoch: 22 June)

Date Brightness Start Highest point End Pass type
(mag) Time Alt. Az. Time Alt. Az. Time Alt. Az.
24 Jun ? 21:38:49 10° NW 21:43:05 40° WSW 21:45:53 19° SSW visible
25 Jun ? 20:13:16 10° NNW 20:17:36 40° ENE 20:21:53 10° SE visible
25 Jun ? 21:52:46 10° NW 21:56:18 22° WSW 21:59:15 13° SSW visible
26 Jun ? 20:26:30 10° NNW 20:31:06 72° ENE 20:35:38 10° SSE visible
26 Jun ? 22:07:37 10° WNW 22:09:25 12° W 22:11:13 10° WSW visible
27 Jun ? 20:39:57 10° NNW 20:44:28 63° WSW 20:48:58 10° SSE visible
28 Jun ? 20:53:38 10° NW 20:57:44 34° WSW 21:01:49 10° S visible
29 Jun ? 21:07:44 10° WNW 21:10:54 19° WSW 21:14:04 10° SSW visible
03 Jul ? 20:22:44 10° WNW 20:25:27 16° W 20:28:08 10° SW visible
